User: anonymous   Login
Location: Newark
(36.0797°N, 3.9744°E)
Time: 13:34:09
(UTC+00:00)
Language:

S-56A Canister/Altair - Orbit

View from above orbital plane
View from above orbital plane
View from above satellite
View from above satellite

Ground track
Ground track

The orbit data is extracted from the following two-line orbital elements,

1    82U 61004B   19347.82730881 -.00000028 +00000-0 +22418-5 0  9995
2    82 038.8612 169.4133 1175213 262.8697 083.7206 12.26056436784906
Epoch (UTC): 13 December 2019 19:51:19
Eccentricity: 0.1175213
inclination: 38.8612°
perigee height: 632 km
apogee height: 2500 km
right ascension of ascending node: 169.4133°
argument of perigee: 262.8697°
revolutions per day: 12.26056436
mean anomaly at epoch: 83.7206°
orbit number at epoch: 78490

The dashed part of the orbit path shows where the satellite is in the earth's shadow,  

DLR